Regional Weather Roundup
Issued by NWS

Home | Current Version | Previous Version | Text Only | Print | Product List | Glossary On
Versions: 1 2 3 4 5 6 7 8 9 10 11 12 13 14 15 16 17 18 19 20 21 22 23 24 25 26 27 28 29 30 31 32 33 34 35 36 37 38 39 40 41 42 43 44 45 46 47 48 49 50
000
ASUS43 KMKX 010921
RWRWI

WISCONSIN REGIONAL WEATHER ROUNDUP
NATIONAL WEATHER SERVICE MILWAUKEE/SULLIVAN WI
400 AM CDT WED OCT 01 2014

NOTE: "FAIR" INDICATES FEW OR NO CLOUDS BELOW 12,000 FEET WITH NO
SIGNIFICANT WEATHER AND/OR OBSTRUCTIONS TO VISIBILITY.

WIZ001-002-006>008-014>016-023>028-011000-
NORTHWEST WISCONSIN

CITY           SKY/WX    TMP DP  RH WIND       PRES   REMARKS
SUPERIOR ARPT  CLOUDY    48  45  89 SE5       29.91R
ASHLAND        MOCLDY    44  42  93 CALM      29.94F
HAYWARD        CLOUDY    47  43  86 S9        29.93F
SIREN          MOCLDY    47  42  82 SE9       29.89S
CUMBERLAND     CLOUDY    45  41  87 SE9       29.91F
RICE LAKE      CLOUDY    47  42  84 SE14G20   29.94S
CHETEK         CLOUDY    46  43  88 E10G16    29.93F
LADYSMITH      CLOUDY    47  43  87 SE7       29.98S
EAU CLAIRE     CLOUDY    47  42  83 SE8       29.94F
MENOMONIE      CLOUDY    48  43  84 E14       29.92F
NEW RICHMOND   CLOUDY    48  42  81 SE8       29.88F
OSCEOLA        CLOUDY    48  44  85 SE12      29.90F
$$

WIZ003>005-009-010-017-018-011000-
NORTH CENTRAL WISCONSIN

CITY           SKY/WX    TMP DP  RH WIND       PRES   REMARKS
MANITOWISH WTR CLOUDY    44  44 100 S13       29.98R
ARBOR VITAE    CLOUDY    44  42  93 S9        29.99R
WOODRUFF       CLOUDY    44  42  93 S9        29.99R
RHINELANDER    CLOUDY    43  42  97 S6        30.01S FOG
EAGLE RIVER    CLOUDY    43  43 100 S7        29.99R FOG
LAND O LAKES   CLOUDY    44  44  97 S7        29.99R FOG
PHILLIPS       CLOUDY    43  42  95 SE10      29.97F
TOMAHAWK       CLOUDY    43  41  94 S3        30.01R FOG
MEDFORD        CLOUDY    44  43  97 SE7       29.98F FOG
MERRILL        CLOUDY    44  44 100 S7        30.01R FOG
$$

WIZ029-030-035-036-043>047-011000-
CENTRAL WISCONSIN

CITY           SKY/WX    TMP DP  RH WIND       PRES   REMARKS
WAUSAU         CLOUDY    45  44  97 SE7       30.00S FOG
MOSINEE        CLOUDY    43  43 100 SE8G16    30.01S FOG
MARSHFIELD     CLOUDY    46  43  89 SE10      30.00S
STEVENS POINT  DRIZZLE   44  43  97 CALM      30.01S
WAUPACA        CLOUDY    49  48  95 CALM      30.02S FOG
WAUTOMA        NOT AVBL
WISC RAPIDS    CLOUDY    46  45  96 SE3       30.01S FOG
CAMP DOUGLAS   CLOUDY    48  48 100 VRB7      29.99S
$$

WIZ011>013-019>022-031-037>040-048>050-011000-
NORTHEAST WISCONSIN

CITY           SKY/WX    TMP DP  RH WIND       PRES   REMARKS
ANTIGO         CLOUDY    43  43 100 SE6       30.01S FOG
SHAWANO        CLOUDY    48  47  93 CALM      30.03S FOG
OCONTO         CLOUDY    50  50 100 SE5       30.03R
STURGEON BAY   NOT AVBL
GREEN BAY      CLOUDY    49  48  97 CALM      30.03S FOG
MANITOWOC      NOT AVBL
APPLETON       CLOUDY    46  46 100 CALM      30.02F FOG
CLINTONVILLE   CLOUDY    45  45 100 E5        30.01F FOG
OSHKOSH        CLOUDY    50  49  96 E5        30.01S FOG
$$

WIZ032>034-041-042-053>061-011000-
SOUTHWEST WISCONSIN

CITY           SKY/WX    TMP DP  RH WIND       PRES   REMARKS
LA CROSSE      CLOUDY    50  44  80 SE8       29.95F
SPARTA         CLOUDY    47  43  84 SE8       29.98S
VIROQUA        CLOUDY    46  46 100 SE9       29.96S
BOSCOBEL       CLOUDY    51  45  79 VRB5      29.98S
PRAIRIE DU CHI CLOUDY    49  44  83 E8        29.95F
PLATTEVILLE    CLOUDY    49  47  91 E10       29.97S
$$

WIZ056-057-062-063-064-067-068-011000-
SOUTH CENTRAL WISCONSIN

CITY           SKY/WX    TMP DP  RH WIND       PRES   REMARKS
REEDSBURG      CLOUDY    48  46  92 SE5       29.99R
BARABOO/DELLS  CLOUDY    47  45  90 E3        29.99R
LONE ROCK      CLOUDY    53  46  77 E8        29.98F
MINERAL POINT  CLOUDY    50  46  87 SE9       29.97R
MADISON        CLOUDY    49  46  90 SE3       29.99S
MIDDLETON      CLOUDY    51  47  88 SE5       30.00R
WATERTOWN      CLOUDY    48  48 100 E5        29.98F
MONROE         CLOUDY    50  46  87 E3        29.98R
JANESVILLE     CLOUDY    50  46  87 CALM      29.98S
$$

WIZ051-052-058>065-066-070>072-011000-
SOUTHEAST WISCONSIN

CITY           SKY/WX    TMP DP  RH WIND       PRES   REMARKS
MILWAUKEE      CLOUDY    56  50  80 SE9       30.00S
WAUKESHA       CLOUDY    48  46  93 E3        30.00F
MILWAUKEE/TIMM CLOUDY    52  48  87 CALM      30.01F
RACINE         CLOUDY    56  47  71 SE7       30.02S
BURLINGTON     CLOUDY    50  49  95 E5        29.99F
KENOSHA        CLOUDY    55  48  77 SE7       30.01S
FOND DU LAC    CLOUDY    49  47  93 CALM      30.02S
SHEBOYGAN      NOT AVBL
WEST BEND      CLOUDY    50  46  87 CALM      30.02S
JUNEAU         CLOUDY    49  47  94 E5        30.00F
$$

LSZ147-162-011000-
LAKE SUPERIOR

STATION/POSITION TIME  TEMP    WIND        PRES    WAVE
                       AIR SEA DIR/SP/G            HT/PER
                 (UTC) (F)     (DEG/KT/KT) (MB)    (FT/S)
W MID LAKE BUOY  0850   49 50  150/ 16/ 19 1014.2F   2/ 4
DEVILS ISLAND    0900   50     150/  6/  7 1014.1F
SAXON HARBOR     0840   41      CALM  /  3 1014.2R
$$

LMZ867-665-643>646-011000-
LAKE MICHIGAN

STATION/POSITION TIME  TEMP    WIND        PRES    WAVE
                       AIR SEA DIR/SP/G            HT/PER
                 (UTC) (F)     (DEG/KT/KT) (MB)    (FT/S)
CHAMBERS ISLAND  0800   52     170/  2/  5 1017.3F
S GREEN BAY BUOY 0900   53                 1017.5F
N MID LAKE BUOY  0850   54 58  190/ 10/ 12 1017.5F   1/ 3
NORTHPORT PIER   0800   54     150/  7/ 12 1016.9F
KEWAUNEE LAKESHO 0900   53     160/  8/ 10 1015.8F
SHEBOYGAN LAKESH 0900   55 54  140/ 13/ 15 1016.7R
PORT WASHINGTON  0800   56     150/  8/ 12 1016.6F
ATWATER BUOY     0900   57     120/  8/  8 1016.8F
MILWAUKEE LAKESH 0900   57     140/ 10/ 13   N/A
S MID LAKE BUOY  0850   57 62  130/ 10/ 14 1016.4S   2/ 5
KENOSHA   LAKESH 0900   57     140/ 13/ 15 1015.9S
$$

TC  - TEMPERATURE IN CELSIUS
VSB - VISIBILITY IN STATUTE MILES
WCI - WIND CHILL INDEX
HX  - HEAT INDEX




USA.gov is the U.S. government's official web portal to all federal, state and local government web resources and services.